Mather, CA

4:35 PM PST on February 24, 2017 (GMT -0800)
Mather

Weather History for KMHR - July, 2013

Change the Weather History Date:

Monday, July 15, 2013

  Actual Average Record
Temperature  
Mean Temperature 70 °F -  
Max Temperature 86 °F 89 °F 105 °F (2005)
Min Temperature 53 °F 58 °F 50 °F (2001)
Cooling Degree Days 4    
Growing Degree Days 20 (Base 50)    
Moisture  
Dew Point 49 °F    
Average Humidity 54    
Maximum Humidity 94    
Minimum Humidity 19    
Precipitation  
Precipitation 0.00 in - - ()
Sea Level Pressure  
Sea Level Pressure 29.82 in    
Wind  
Wind Speed 8 mph (South)    
Max Wind Speed 10 mph    
Max Gust Speed -    
Visibility 10 miles    
Events      
Averages and records for this station are not official NWS values.
T = Trace of Precipitation, MM = Missing Value Source: NWS Daily Summary

Daily Weather History Graph

Daily Weather History Graph

Search for Another Location

Airport or City:

Trip Planner

Search our weather history database for the weather conditions in past years. The results will help you decide how hot, cold, wet, or windy it might be!

Date:

Astronomy

Jul. 15, 2013 Rise Set
Actual Time 5:53 AM PDT 8:28 PM PDT
Civil Twilight 5:22 AM PDT 8:59 PM PDT
Nautical Twilight 4:44 AM PDT 9:37 PM PDT
Astronomical Twilight 4:01 AM PDT 10:20 PM PDT
Moon 1:12 PM PDT (7/15) No Moon Set
Length of Visible Light 15h 36m
Length of Day
14h 35m
Waxing Crescent, 46% of the Moon is Illuminated
Jul 15
Waxing Crescent
Jul 15
First Quarter
Jul 22
Full
Jul 29
Last Quarter
Aug 6
New

Hourly Weather History & Observations

Time (PDT) Temp. Dew Point Humidity Pressure Visibility Wind Dir Wind Speed Gust Speed Precip Events Conditions
5:50 AM 53.6 °F 48.2 °F 82% 29.85 in 10.0 mi SSE 5.8 mph - N/A   Clear
6:50 AM 53.6 °F 48.2 °F 82% 29.85 in 10.0 mi South 8.1 mph - N/A   Clear
7:50 AM 57.2 °F 50.0 °F 77% 29.87 in 10.0 mi South 6.9 mph - N/A   Clear
8:45 AM 59.0 °F 50.0 °F 72% 29.87 in 10.0 mi South 6.9 mph - N/A   Clear
9:45 AM 64.4 °F 50.0 °F 59% 29.87 in 10.0 mi SSW 10.4 mph - N/A   Clear
10:50 AM 68.0 °F 66.2 °F 94% 29.86 in 10.0 mi South 8.1 mph - N/A   Clear
11:48 AM 71.6 °F 50.0 °F 46% 29.85 in 10.0 mi South 8.1 mph - N/A   Clear
12:56 PM 77.0 °F 50.0 °F 39% 29.83 in 10.0 mi South 8.1 mph - N/A   Clear
1:45 PM 78.8 °F 50.0 °F 36% 29.82 in 10.0 mi SSW 9.2 mph - N/A   Clear
2:51 PM 84.2 °F 48.2 °F 29% 29.80 in 10.0 mi SSW 10.4 mph - N/A   Clear
3:46 PM 84.2 °F 41.0 °F 22% 29.78 in 10.0 mi SW 10.4 mph - N/A   Clear
4:50 PM 86.0 °F 39.2 °F 19% 29.77 in 10.0 mi South 9.2 mph - N/A   Clear
5:55 PM 84.2 °F 44.6 °F 25% 29.76 in 10.0 mi South 10.4 mph - N/A   Clear
6:46 PM 80.6 °F 46.4 °F 30% 29.76 in 10.0 mi South 10.4 mph - N/A   Clear
7:46 PM 75.2 °F 48.2 °F 38% 29.77 in 10.0 mi South 9.2 mph - N/A   Clear
8:46 PM 68.0 °F 48.2 °F 49% 29.79 in 10.0 mi SSW 9.2 mph - N/A   Clear
9:46 PM 62.6 °F 48.2 °F 59% 29.81 in 10.0 mi SSW 9.2 mph - N/A   Clear
10:46 PM 57.2 °F 50.0 °F 77% 29.82 in 10.0 mi SSE 4.6 mph - N/A   Clear
11:46 PM 55.4 °F 50.0 °F 82% 29.83 in 10.0 mi SE 6.9 mph - N/A   Clear